SCP
0 0 0 0 0 0 0 0 0 0 0 0 0 0 0 0 0 0 0 0 0 0 0 0 -0 -0 0 0 0 0 0 0 0 0 0 0 0 0 0 0 0 0 0 0
0 0 0 0 0 0 0 0 0 0 0 0 0 0 0 0 0 0 0 0 0 0 0 0 -0 0 0 -0 0 0 0 0 0 0 0 0 0 0 0 0 0 0 0 0
0 0 0 0 0 0 0 0 0 0 0 0 0 0 0 0 0 0 0 0 0 0 0 0 0 0 -0 -0 -0 0 0 0 0 0 0 0 0 0 0 0 0 0 0 0
0 0 0 0 0 0 0 0 0 0 0 0 0 0 0 0 0 0 0 0 0 0 0 0 0 0 0 -0 -0 -0 0 0 0 0 0 0 0 0 0 0 0 0 0 0
0 0 0 0 0 0 0 0 0 0 0 0 0 0 0 0 0 0 0 0 0 0 0 0 0 0 0 -0 -0 -0 -0 0 0 0 0 0 0 0 0 0 0 0 0 0
0 0 0 0 0 0 0 0 0 0 0 0 0 0 0 0 0 0 0 0 0 0 0 0 0 0 0 0 -0 -0 -0 -0 0 0 0 0 0 0 0 0 0 0 0 0
0 0 0 0 0 0 0 0 0 0 0 0 0 0 0 0 0 0 -0 -0 0 0 0 0 0 0 0 0 0 -0 -0 -0 0 0 0 0 0 0 0 0 0 0 0 0
0 0 0 0 0 0 0 0 0 0 0 0 0 0 0 0 0 0 -0 -0 -0 0 0 0 0 0 0 0 0 0 0 0 0 0 0 0 0 0 0 0 0 0 0 0
0 0 0 0 0 0 0 0 0 0 0 0 0 0 0 0 0 0 0 0 0 0 0 0 0 0 0 0 0 0 0 0 0 0 0 0 0 0 0 0 0 0 0 0
0 0 0 0 0 0 0 0 0 0 0 0 0 0 0 0 0 0 0 0 0 0 0 0 0 0 0 0 0 0 0 0 0 0 0 0 0 0 0 0 0 0 0 0
0 0 0 0 0 0 0 0 0 0 0 0 0 0 0 0 0 0 0 0 0 0 0 0 0 0 0 0 0 0 0 0 0 0 0 0 0 0 0 0 0 0 0 0
0 0 0 0 0 0 0 0 0 0 0 0 0 0 0 0 0 0 0 0 0 0 0 0 0 0 0 0 0 0 0 0 0 0 0 0 0 0 0 0 0 0 0 0
0 0 0 0 0 0 0 0 0 0 0 0 0 0 0 0 0 0 0 0 0 0 0 0 0 0 0 0 0 0 0 0 0 0 0 0 0 0 0 0 0 0 0 0
0 0 0 -0 -0 0 0 0 0 0 0 0 0 0 0 0 0 0 0 0 0 0 0 0 0 0 0 0 0 0 0 0 0 0 0 0 0 0 0 0 0 0 0 0
0 0 0 -0 -0 0 0 0 0 0 0 0 0 0 0 0 0 0 0 0 0 0 0 0 0 0 0 0 0 0 0 0 0 0 0 0 0 0 0 0 0 0 0 0
0 0 0 -0 -0 0 0 0 0 0 0 0 0 0 0 0 0 0 0 0 0 0 0 -0 -0 -0 0 0 0 0 0 0 0 0 0 0 0 0 0 0 0 0 0 0
0 0 0 0 0 0 0 0 0 0 0 0 0 0 0 0 0 0 0 0 0 0 0 -0 -0 -0 -0 0 0 0 0 0 0 0 0 0 0 0 0 0 0 0 0 0
0 0 0 0 0 0 0 0 0 0 0 0 0 0 0 0 0 0 0 0 0 0 0 0 0 -0 -0 0 0 0 0 0 0 0 0 0 0 0 0 0 0 0 0 0
0 0 0 0 0 0 0 0 0 0 0 0 0 0 0 0 0 0 0 0 0 0 0 0 0 0 0 0 0 0 0 0 0 0 0 0 0 0 0 0 0 0 0 0
0 0 0 0 0 0 0 0 0 0 0 0 0 0 0 0 0 0 0 0 0 0 0 0 0 0 0 0 0 0 0 0 0 0 0 0 0 0 0 0 0 0 0 0
0 0 0 0 0 0 0 0 0 0 0 0 0 0 0 0 0 0 0 0 0 0 0 0 0 0 0 0 0 0 0 0 0 0 0 0 0 0 0 0 0 0 0 0
0 0 0 0 0 0 0 0 0 0 0 0 0 0 0 0 0 0 0 0 0 0 0 0 0 0 0 0 0 0 0 0 0 0 0 0 0 0 0 0 0 0 0 0
0 0 0 0 0 0 0 0 0 0 0 0 0 0 0 0 0 0 0 0 0 0 0 0 0 0 0 0 0 0 0 0 0 0 0 0 0 0 0 0 0 0 0 0
0 0 0 0 0 0 0 0 0 0 0 0 0 0 0 0 -0 0 0 0 0 0 0 0 0 0 0 0 0 0 0 0 0 0 0 0 0 0 0 0 0 0 0 0
0 0 0 0 0 0 0 0 0 0 0 0 0 0 0 -0 -0 0 0 0 0 0 0 0 0 0 0 0 0 0 0 0 0 0 0 0 0 0 0 0 0 0 0 0
0 0 0 0 0 0 0 0 0 0 0 0 0 0 -0 -0 0 0 0 0 0 0 0 0 0 0 0 0 0 0 0 0 0 0 0 0 0 -0 -0 0 0 0 0 0
Wind_Speed
2 4 1 4 4 2 3 3 3 4 1 2 6 10 12 7 6 8 8 8 9 9 6 5 6 6 5 5 5 5 6 6 5 3 3 3 3 2 2 2 2 3 3 3
3 1 3 2 2 2 2 2 3 3 1 2 5 11 10 7 8 9 10 10 10 8 5 5 5 6 7 7 6 6 7 7 7 5 3 2 2 2 2 1 2 2 3 3
4 2 2 2 1 2 3 4 3 3 3 1 4 9 7 6 6 7 8 9 8 9 8 6 7 7 7 8 8 7 7 7 7 6 3 2 1 1 2 2 2 2 3 3
2 2 1 2 2 3 4 3 3 2 1 3 1 6 8 5 6 8 9 8 9 9 8 7 7 8 9 9 7 7 7 6 6 7 6 6 5 4 4 3 3 2 3 4
2 0 1 3 3 3 3 1 1 1 1 2 1 3 11 2 7 9 9 9 9 8 8 8 9 9 8 7 7 7 7 6 6 7 8 7 5 4 2 3 3 3 3 3
1 1 1 2 0 2 2 2 2 3 3 3 4 4 10 5 8 6 6 6 7 7 7 7 7 6 5 5 6 6 7 7 6 6 7 8 8 6 5 5 5 4 2 3
2 1 0 1 2 1 1 3 3 4 3 6 2 5 13 8 6 6 7 7 6 6 6 6 6 6 6 7 7 7 8 8 7 7 7 8 8 8 8 7 6 5 4 3
1 4 2 1 3 3 2 3 5 4 5 6 2 8 11 6 5 5 6 6 4 4 4 6 7 7 7 7 8 8 9 8 7 8 7 7 7 6 6 7 6 6 5 5
4 4 1 0 0 4 3 2 2 4 0 4 7 9 12 4 4 4 4 4 4 4 4 5 4 5 6 6 8 9 9 8 8 8 7 7 7 7 6 6 6 5 4 4
4 2 2 1 1 1 1 4 4 3 2 5 8 7 7 6 5 4 4 4 5 4 4 4 3 4 5 5 5 6 7 8 7 7 7 6 7 7 6 6 6 6 5 5
2 3 1 0 4 5 3 3 3 3 3 4 5 10 7 6 5 5 6 5 5 5 5 4 4 3 3 3 3 5 6 6 6 6 6 6 6 6 6 6 7 7 6 6
2 3 2 4 1 1 3 5 6 5 4 4 4 12 5 4 4 4 5 5 4 4 4 4 3 3 2 3 3 4 5 5 6 6 6 6 6 6 6 7 7 7 6 6
4 4 1 3 2 1 3 4 4 3 3 4 5 12 3 3 5 5 5 6 5 4 4 4 3 3 3 3 3 4 4 5 5 4 5 6 6 6 7 7 6 7 7 6
4 3 6 8 5 4 5 6 6 6 5 7 12 13 11 9 8 8 7 6 5 5 4 4 4 4 3 3 3 4 4 4 4 4 5 6 7 7 7 6 6 6 7 7
4 4 5 6 3 3 6 8 9 12 11 11 11 11 15 10 8 7 6 5 5 5 5 5 4 4 3 3 3 3 4 3 4 5 6 6 5 5 5 5 5 5 5 6
3 3 1 4 3 4 8 11 12 13 11 13 12 17 13 8 6 6 6 5 5 6 5 5 5 4 4 4 4 4 4 3 4 5 5 4 4 4 4 4 5 5 5 4
4 4 3 5 2 3 11 13 14 10 10 11 15 16 6 7 8 7 6 5 5 6 5 5 5 5 5 4 4 4 4 2 3 4 3 4 4 4 4 4 4 4 5 4
6 5 3 2 1 9 10 3 9 10 9 10 10 9 7 8 7 6 4 4 6 5 5 5 4 4 3 2 2 2 1 2 2 2 2 2 3 3 3 3 4 4 3 4
5 6 4 3 4 11 9 3 6 8 9 8 12 12 9 6 6 5 3 3 5 5 4 4 3 2 2 1 1 1 1 1 1 2 2 2 3 3 3 4 4 3 3 3
3 4 4 4 4 9 7 1 2 3 7 3 7 9 6 1 3 6 5 4 4 4 3 2 2 2 1 1 1 2 1 1 2 2 2 1 2 3 3 3 3 2 3 3
5 4 6 7 7 12 7 1 4 4 6 2 2 4 2 4 5 4 5 5 4 4 4 2 2 1 2 1 2 2 1 2 2 1 0 1 2 2 2 2 2 2 2 2
10 8 8 7 7 12 2 5 6 5 3 3 2 2 3 5 5 5 5 5 4 4 4 3 2 2 3 2 1 1 1 2 1 1 1 1 1 1 1 2 2 2 2 2
8 9 8 11 9 2 4 4 2 2 3 3 3 3 3 4 4 5 4 4 4 3 3 3 2 2 3 3 1 0 2 2 1 1 1 1 1 1 1 2 2 2 2 2
4 1 3 5 7 4 3 3 3 2 3 4 4 4 3 4 5 5 5 4 4 3 3 2 2 2 2 2 2 2 2 1 1 1 1 1 1 1 1 1 1 2 2 2
4 3 3 5 5 5 3 2 5 5 4 5 5 4 4 4 5 5 5 5 4 3 3 2 1 2 2 2 2 3 2 1 0 1 1 1 1 1 1 1 1 2 2 2
4 6 6 6 4 4 4 3 3 4 5 6 6 6 4 3 5 5 4 4 3 3 3 2 2 2 2 2 2 3 2 1 1 0 0 0 0 0 1 1 0 1 1 1
Wind_Direction
46 79 171 217 202 192 164 178 240 257 258 230 248 262 266 252 235 243 241 237 240 241 239 211 201 193 189 190 192 198 196 188 177 179 178 183 200 197 200 207 196 188 179 173
67 238 235 200 173 181 183 213 260 286 296 241 280 275 266 245 230 230 234 233 234 240 239 217 202 193 195 198 201 202 204 195 190 190 187 179 176 185 197 205 203 186 174 172
173 230 212 163 161 197 231 212 231 266 325 309 318 297 268 252 236 238 233 231 232 229 231 220 208 204 203 203 202 206 207 201 197 188 168 138 107 140 175 204 209 203 183 174
216 285 139 159 194 186 247 218 208 236 344 305 28 297 282 257 264 244 239 234 235 233 228 218 210 210 211 212 205 203 203 203 198 185 183 177 189 205 203 194 194 203 192 182
233 212 152 193 217 180 219 107 161 169 163 309 272 254 280 279 262 252 238 233 236 233 225 222 217 214 214 209 205 200 200 202 197 195 193 188 200 208 185 173 189 203 208 191
212 204 200 199 210 170 154 71 71 62 73 280 226 209 276 236 230 248 241 236 238 239 234 230 221 214 213 205 202 196 198 205 199 199 200 195 199 194 186 190 195 203 207 204
324 249 270 119 102 69 103 93 30 358 350 256 215 224 254 251 239 235 247 254 252 241 235 231 221 215 214 208 204 199 200 208 201 200 205 202 202 197 199 199 198 197 201 211
183 276 231 186 163 167 188 154 158 203 241 281 266 242 256 264 270 260 260 262 267 258 243 234 225 217 215 212 207 202 204 210 204 203 209 205 201 201 207 206 199 201 205 209
180 245 358 162 164 144 149 186 158 135 67 287 270 278 296 281 289 280 283 288 274 266 254 245 239 226 221 217 211 206 206 211 208 207 206 203 202 202 206 205 202 203 204 198
159 222 289 315 76 29 141 147 118 137 187 274 289 275 263 287 284 297 301 295 293 296 282 267 250 240 233 225 218 208 207 212 212 206 206 206 204 204 203 199 204 203 201 194
152 159 293 279 198 188 148 153 150 148 175 189 278 274 230 237 256 271 280 290 288 289 282 272 261 249 242 233 215 209 209 213 213 209 207 206 207 203 197 200 207 203 198 195
160 136 238 245 229 186 190 190 166 176 222 207 237 270 263 241 271 275 283 290 290 285 282 280 274 267 252 239 229 219 213 216 218 210 205 209 208 200 199 205 206 199 197 198
147 137 56 336 314 266 234 214 193 158 143 187 215 263 292 318 309 295 287 293 299 301 301 302 294 273 257 250 243 235 225 220 218 207 206 207 206 203 206 208 204 197 195 195
137 173 193 213 226 185 214 210 186 171 197 222 230 257 287 293 291 294 293 290 294 298 296 296 289 277 265 255 244 240 239 223 211 204 205 209 209 207 207 204 201 198 194 193
144 211 235 253 253 219 229 222 202 210 216 222 242 246 263 275 276 282 286 291 298 300 297 288 280 279 274 269 260 247 240 225 206 201 208 215 211 206 201 198 197 195 193 197
152 200 228 271 238 233 257 241 222 227 232 242 263 269 265 275 281 284 285 285 285 288 287 287 286 282 270 260 257 252 245 222 202 204 212 212 204 199 198 198 194 189 191 190
170 162 181 258 286 320 265 226 200 209 214 206 232 249 279 287 287 282 285 276 270 277 281 278 272 267 266 262 254 242 236 191 183 200 205 203 198 197 198 191 181 184 186 179
168 162 181 251 40 242 245 179 188 210 232 219 240 262 270 272 287 280 267 264 274 279 281 277 276 279 281 281 276 264 169 156 177 192 199 193 189 195 187 181 185 185 180 179
186 168 165 177 243 273 287 229 178 200 255 221 232 256 273 298 308 292 290 273 264 270 275 277 278 284 293 292 274 137 131 143 172 212 213 198 184 183 177 184 193 187 174 179
166 165 167 177 214 245 257 220 180 152 274 253 218 249 267 331 302 288 336 328 307 318 324 322 335 356 354 342 92 126 142 155 223 234 223 189 175 178 185 190 186 174 171 177
170 182 196 202 230 259 265 210 136 177 258 320 216 249 232 212 236 295 336 339 340 341 341 354 15 13 350 18 104 127 135 236 260 276 111 140 164 178 181 169 154 147 156 151
177 178 195 180 215 253 232 137 181 231 322 353 327 283 243 255 287 315 325 328 339 346 352 4 15 3 6 28 97 135 243 287 344 58 106 144 165 166 154 142 130 128 148 155
199 193 187 195 213 240 150 186 237 342 321 328 323 310 290 284 292 305 311 316 325 333 341 357 5 6 10 17 37 249 307 352 49 99 124 128 126 133 132 148 146 136 147 166
237 229 195 236 258 256 233 264 301 304 287 304 314 311 306 290 297 304 306 313 318 326 335 354 10 0 346 356 3 342 347 12 91 142 152 127 132 122 110 141 155 163 177 191
216 173 213 246 280 303 286 275 285 297 309 309 308 303 296 294 298 300 304 309 314 323 341 351 337 320 323 348 350 353 358 17 80 140 116 107 124 150 162 174 196 193 203 200
182 179 193 232 235 238 270 318 341 314 305 303 308 313 313 295 292 304 303 311 321 327 338 340 334 326 330 350 346 351 352 2 100 126 142 163 178 187 180 178 299 272 246 260